Location: Bacharowice
(49.9333°N, 19.5833°E)
Time: 13:03:16
(UTC+00:00)

Cosmos 1356 Rocket - Pass Details

Date: 11 May 2021
Orbit: 542 x 598 km, 81.2° (Epoch: 22 June)

Event Time Altitude Azimuth Distance (km) Brightness Sun altitude
Rises 22:40:38 0° 347° (NNW) 2,838 8.3 -21.9°
Reaches altitude 10° 22:42:50 10° 347° (NNW) 1,938 7.2 -21.9°
Maximum altitude 22:47:08 85° 258° (WSW) 606 3.4 -21.9°
Enters shadow 22:47:35 71° 184° (S) 636 3.3 -21.9°
